STARLINK-36676, 67912

Orbit data source: Space-Track

STARLINK-36676, 67912 is a payload satellite owned by SpaceX/Seattle (US) in LEO that was launched on Sun, 22 Feb 2026 UTC via an FALCON 9 launch vehicle from the Air Force Eastern Test Range (AFETR). Payload-class satellites include a variety of spacecraft equipped with specific instruments for various scientific and technological missions. These include communications satellites like Starlink; space stations such as the ISS; scientific satellites like the Hubble; Earth observation satellites from companies like Planet Labs, Umbra, and HawkEye 360; GPS; miniature CubeSats for education and research; and military/defense satellites.

Loading next visibility...
Identifier
67912, 2026-036J
Orbit
LEO
Country
Flag of USUS
Related business
Manufacturer
SpaceX/Seattle
Mission
Operational spacecraft
Bus & Motor
STARLINK V2MO, Unknown motor
Mass
575 kg wet, ~530 kg dry
Launch date (UTC)
2026-02-22 (2 months ago)
Launch vehicle
FALCON 9
Launch site
Air Force Eastern Test Range (AFETR)
Object type
Payload
Rocket body
Debris
Shape & HBR
Unknown shape, 17.7 m
Radar Cross Section
RCS unknown

Expand to show TLE details & history
Last TLE update: 8 hours ago

TLE from 8 hours ago
0 STARLINK-36676
1 67912U 26036J   26104.20308863  .00006801  00000-0  25637-3 0  9996
2 67912  42.9997  44.6723 0001299 269.7971  90.2731 15.27587075  9159
Epoch: 2026-04-14T04:52Z
TLE epoch observation values (Epoch: 2026-04-14T04:52:26.857Z)
Latitude
-0.00008°
Longitude
129.1776°
Altitude
482.808 km
Speed
7.626 km/s
True Right ascension
02h 58m 41s
True Declination
0° 00' 00"
Sunlit
Object was in daylight at epoch
Visualization orbit readout
Latitude
Unknown
Longitude
Unknown
Altitude
Unknown
Speed
Unknown
Apparent Right ascension
Unknown
Apparent Declination
Unknown
Sunlit
N/A
Visualization observer readout
Local Sidereal Time
19:21:36
Azimuth
Unknown
Elevation
Unknown
Doppler factor
Unknown
Orbital elements
Apogee altitude
485.865 km
Perigee altitude
484.082 km
Semi-major axis
6,863.11 km
Eccentricity
0.00013
Inclination
42.9997°
RAAN
44.6723°
Arg. of periapsis
269.7971°
True anomaly
90.28799°
Mean anomaly
90.2731°
Eccentric anomaly
90.28054°
Mean motion
3.81735 °/min
Orbital period
94.31 mins
BSTAR
0.00025637
Loading maneuver chart data...
Computing Atmospheric mass density...
Loading historical data...
Loading historical data...
Loading historical data...
Loading historical data...
Loading historical data...
Loading historical data...
Loading historical data...

Documentation

Showing up to 5 results
|